User: anonymous   Login
Location: Unspecified
(0.0000°N, 0.0000°E)
Time: 00:57:14
(UTC+00:00)
Language:

Okean 1-7 - Orbit

View from above orbital plane
View from above orbital plane
View from above satellite
View from above satellite

Ground track
Ground track

The orbit data is extracted from the following two-line orbital elements,

1 23317U 94066A   21023.85656544  .00000220  00000-0  21257-4 0  9997
2 23317  82.5395 319.6819 0020317  17.8314 342.3612 14.87860061421687
Epoch (UTC): 23 January 2021 20:33:27
Eccentricity: 0.0020317
inclination: 82.5395°
perigee height: 590 km
apogee height: 619 km
right ascension of ascending node: 319.6819°
argument of perigee: 17.8314°
revolutions per day: 14.87860061
mean anomaly at epoch: 342.3612°
orbit number at epoch: 42168

The dashed part of the orbit path shows where the satellite is in the earth's shadow,  

DLR